Location: Les Gen�tes
(46.3104°N, 1.5969°E)
Time: 02:46:01
(UTC+00:00)

SL-8 R/B - Pass Details

Date: 01 June 2020
Orbit: 657 x 667 km, 48.4° (Epoch: 05 July)

Event Time Altitude Azimuth Distance (km) Brightness Sun altitude
Rises 20:33:45 0° 284° (WNW) 2,989 8.2 -8.2°
Reaches altitude 10° 20:36:06 10° 286° (WNW) 2,078 7.3 -8.5°
Maximum altitude 20:40:54 81° 13° (NNE) 675 3.8 -9.1°
Drops below altitude 10° 20:45:44 10° 102° (ESE) 2,081 5.8 -9.6°
Enters shadow 20:46:17 - 102° (ESE) 2,293 6.0 -9.7°
